Date String (YYYY-MM-DD hh:mm:ss) UTC,Instrument flags,Ambient pressure (hPa),Sample flow (lpm),Bypass flow (lpm),Sample temperature (°C),Ambient temperature (°C),ASC tube jacket temperature (°C),LED temperature (°C),Box temperature (°C),Sample RH (%),Span deviation,Mass concentration (μg/m³),Mass concentration (μg/m³),Mass concentration (μg/m³)
DateTimeUTC,F1_M11,P_M11,Q1_M11,Q2_M11,T1_M11,T2_M11,T3_M11,T4_M11,T5_M11,U1_M11,ZSPAN_M11,X0_M11,X2_M11,X1_M11
2023-01-26 10:00:00,,0829.6,5.00,0.00,22.2,21.7,00.0,30.9,23.9,05.1,0000.0,0001.52,0000.99,0000.85
2023-01-26 10:01:00,,0829.6,4.99,0.00,22.1,21.2,00.0,30.9,23.8,05.1,0000.0,0001.40,0000.98,0000.84
2023-01-26 10:02:00,,0829.6,4.99,0.00,22.1,20.8,00.0,30.9,23.7,05.1,0000.0,0001.35,0000.96,0000.84
2023-01-26 10:03:00,,0829.6,5.01,0.00,22.0,20.6,00.0,30.9,23.6,05.1,0000.0,0001.36,0000.96,0000.84
2023-01-26 10:04:00,,0829.6,4.98,0.00,22.0,20.3,00.0,30.8,23.5,05.1,0000.0,0001.85,0000.96,0000.84
2023-01-26 10:05:00,,0829.6,5.01,0.00,21.9,20.2,00.0,30.8,23.4,05.1,0000.0,0002.25,0000.96,0000.85
2023-01-26 10:06:00,,0829.6,5.00,0.00,21.9,20.7,00.0,30.8,23.5,05.1,0000.0,0002.26,0000.97,0000.86
2023-01-26 10:07:00,,0829.6,5.01,0.00,22.0,21.8,00.0,30.8,23.8,05.0,0000.0,0002.16,0000.94,0000.86
2023-01-26 10:08:00,,0829.6,4.99,0.00,22.1,22.6,00.0,30.8,24.0,05.0,0000.0,0002.10,0000.92,0000.85
2023-01-26 10:09:00,,0829.6,4.98,0.00,22.2,22.9,00.0,30.8,24.2,04.9,0000.0,0002.09,0000.92,0000.86
2023-01-26 10:10:00,,0829.6,4.97,0.00,22.2,22.2,00.0,30.9,24.1,04.9,0000.0,0002.12,0000.93,0000.86
2023-01-26 10:11:00,,0829.6,5.02,0.00,22.2,21.5,00.0,30.9,23.9,04.9,0000.0,0002.09,0000.92,0000.85
2023-01-26 10:12:00,,0829.6,4.99,0.00,22.1,21.0,00.0,30.9,23.8,05.0,0000.0,0002.13,0000.92,0000.85
2023-01-26 10:13:00,,0829.5,4.99,0.00,22.1,20.7,00.0,30.9,23.7,05.0,0000.0,0002.14,0000.93,0000.86
2023-01-26 10:14:00,,0829.6,5.00,0.00,22.0,20.5,00.0,30.9,23.6,05.0,0000.0,0002.12,0000.93,0000.87
2023-01-26 10:15:00,,0829.6,5.00,0.00,22.0,20.3,00.0,30.9,23.5,05.0,0000.0,0001.56,0000.93,0000.87
2023-01-26 10:16:00,,0829.6,4.99,0.00,21.9,20.2,00.0,30.8,23.4,05.0,0000.0,0001.21,0000.93,0000.86
2023-01-26 10:17:00,,0829.6,5.00,0.00,21.9,21.0,00.0,30.8,23.6,05.0,0000.0,0001.20,0000.92,0000.86
2023-01-26 10:18:00,,0829.6,5.00,0.00,22.0,22.2,00.0,30.8,23.9,05.0,0000.0,0001.23,0000.93,0000.86
2023-01-26 10:19:00,,0829.5,5.00,0.00,22.2,23.0,00.0,30.8,24.1,05.1,0000.0,0001.26,0000.95,0000.86
2023-01-26 10:20:00,,0829.6,4.99,0.00,22.3,22.7,00.0,30.9,24.2,05.1,0000.0,0001.26,0000.95,0000.85
2023-01-26 10:21:00,,0829.6,4.99,0.00,22.2,22.0,00.0,30.9,24.1,05.0,0000.0,0001.33,0000.97,0000.86
2023-01-26 10:22:00,,0829.5,4.99,0.00,22.2,21.5,00.0,30.9,23.9,04.9,0000.0,0001.29,0000.97,0000.87
2023-01-26 10:23:00,,0829.5,4.99,0.00,22.2,21.0,00.0,30.9,23.8,05.0,0000.0,0001.29,0000.98,0000.89
2023-01-26 10:24:00,,0829.5,4.99,0.00,22.1,20.7,00.0,30.9,23.7,05.0,0000.0,0001.29,0000.98,0000.89
2023-01-26 10:25:00,,0829.6,5.02,0.00,22.0,20.5,00.0,30.9,23.6,05.0,0000.0,0001.32,0000.99,0000.89
2023-01-26 10:26:00,,0829.6,5.00,0.00,22.0,20.3,00.0,30.9,23.5,05.0,0000.0,0001.32,0000.98,0000.88
2023-01-26 10:27:00,,0829.6,5.02,0.00,21.9,20.2,00.0,30.9,23.4,05.0,0000.0,0001.34,0001.00,0000.89
2023-01-26 10:28:00,,0829.6,4.98,0.00,21.9,20.9,00.0,30.8,23.6,04.9,0000.0,0001.35,0001.01,0000.90
2023-01-26 10:29:00,,0829.6,5.01,0.00,22.0,21.9,00.0,30.8,23.8,04.9,0000.0,0001.35,0001.01,0000.91
2023-01-26 10:30:00,,0829.5,5.00,0.00,22.1,22.8,00.0,30.8,24.1,04.9,0000.0,0001.35,0001.00,0000.91
2023-01-26 10:31:00,,0829.5,4.99,0.00,22.2,22.9,00.0,30.9,24.2,04.9,0000.0,0001.40,0001.02,0000.92
2023-01-26 10:32:00,,0829.5,4.98,0.00,22.3,22.2,00.0,30.9,24.1,04.9,0000.0,0001.40,0001.02,0000.92
2023-01-26 10:33:00,,0829.5,5.00,0.00,22.2,21.7,00.0,30.9,24.0,04.9,0000.0,0001.42,0001.04,0000.92
2023-01-26 10:34:00,,0829.5,5.03,0.00,22.2,21.2,00.0,30.9,23.9,04.9,0000.0,0001.41,0001.02,0000.91
2023-01-26 10:35:00,,0829.5,5.00,0.00,22.1,20.8,00.0,30.9,23.7,04.9,0000.0,0001.44,0001.03,0000.91
2023-01-26 10:36:00,,0829.5,5.00,0.00,22.1,20.6,00.0,30.9,23.7,04.9,0000.0,0001.43,0001.03,0000.90
2023-01-26 10:37:00,,0829.5,5.02,0.00,22.0,20.3,00.0,30.9,23.6,04.9,0000.0,0001.42,0001.02,0000.90
2023-01-26 10:38:00,,0829.5,4.99,0.00,22.0,20.2,00.0,30.9,23.5,04.9,0000.0,0001.41,0001.01,0000.89
2023-01-26 10:39:00,,0829.5,5.00,0.00,21.9,20.2,00.0,30.8,23.5,05.0,0000.0,0001.39,0001.00,0000.89
2023-01-26 10:40:00,,0829.5,5.01,0.00,22.0,21.1,00.0,30.8,23.6,04.9,0000.0,0001.38,0000.99,0000.88
2023-01-26 10:41:00,,0829.5,4.99,0.00,22.1,22.1,00.0,30.8,23.9,04.9,0000.0,0001.41,0001.00,0000.88
2023-01-26 10:42:00,,0829.5,5.00,0.00,22.2,22.6,00.0,30.9,24.0,04.9,0000.0,0001.38,0000.99,0000.88
2023-01-26 10:43:00,,0829.5,4.99,0.00,22.2,22.0,00.0,30.9,24.0,04.9,0000.0,0001.29,0000.96,0000.88
2023-01-26 10:44:00,,0829.5,5.02,0.00,22.2,21.4,00.0,30.9,23.9,04.9,0000.0,0001.27,0000.95,0000.88
2023-01-26 10:45:00,,0829.5,4.98,0.00,22.1,21.0,00.0,30.9,23.8,04.9,0000.0,0001.32,0000.96,0000.89
2023-01-26 10:46:00,,0829.5,5.00,0.00,22.1,20.7,00.0,30.9,23.7,04.9,0000.0,0001.41,0000.98,0000.89
2023-01-26 10:47:00,,0829.5,5.00,0.00,22.0,20.4,00.0,30.9,23.6,04.9,0000.0,0001.38,0000.97,0000.90
2023-01-26 10:48:00,,0829.5,4.99,0.00,22.0,20.3,00.0,30.8,23.5,04.9,0000.0,0001.41,0000.99,0000.90
2023-01-26 10:49:00,,0829.5,4.99,0.00,21.9,20.2,00.0,30.8,23.4,04.9,0000.0,0001.41,0000.99,0000.90
2023-01-26 10:50:00,,0829.5,5.01,0.00,21.9,21.0,00.0,30.8,23.6,04.9,0000.0,0001.46,0001.01,0000.90
2023-01-26 10:51:00,,0829.5,5.00,0.00,22.0,22.0,00.0,30.8,23.8,04.9,0000.0,0001.56,0001.04,0000.91
2023-01-26 10:52:00,,0829.5,4.99,0.00,22.1,22.5,00.0,30.8,24.0,04.9,0000.0,0001.53,0001.04,0000.92
2023-01-26 10:53:00,,0829.5,4.99,0.00,22.2,22.0,00.0,30.9,24.0,04.9,0000.0,0001.57,0001.07,0000.92
2023-01-26 10:54:00,,0829.5,5.01,0.00,22.1,21.5,00.0,30.9,23.9,04.9,0000.0,0001.60,0001.07,0000.92
2023-01-26 10:55:00,,0829.4,5.01,0.00,22.1,21.0,00.0,30.9,23.8,04.9,0000.0,0001.62,0001.07,0000.91
2023-01-26 10:56:00,,0829.4,5.00,0.00,22.0,20.7,00.0,30.9,23.7,04.9,0000.0,0001.68,0001.07,0000.91
2023-01-26 10:57:00,,0829.4,4.99,0.00,22.0,20.5,00.0,30.9,23.5,04.9,0000.0,0001.57,0001.05,0000.91
2023-01-26 10:58:00,,0829.3,5.02,0.00,21.9,20.3,00.0,30.8,23.4,04.9,0000.0,0001.53,0001.03,0000.90
2023-01-26 10:59:00,,0829.4,5.00,0.00,21.9,20.5,00.0,30.8,23.4,05.0,0000.0,0001.53,0001.04,0000.91
